Content
SEND FEEDBACK

Daily
Averages
Monthly
Summary
United States of America

BOX ELDER, SOUTH DAKOTA


Home > North America > United States > South Dakota
Elevation: 3170 feet     Latitude: 44 09N     Longitude: 103 06W

WEATHER
 
SELECT A DAY
Number of Records: 204,116;   Date Range: 1/1/95 - 7/29/14
 
SHARE

PRINT THIS DATA

[ ← Previous Day ]
WEATHER ALMANAC - MARCH 31, 2013
[ Next Day → ]
[ °C ]   °F
Weather ElementAverageHighLow
Temperature35.9 °F48.9 °F (11:55 am)30.2 °F (10:09 pm)
Dewpoint25.7 °F31.1 °F (10:55 am)16.5 °F (3:55 pm)
Humidity69.5 %86 % (10:09 pm)30 % (3:55 pm)
Barometer30.16 in30.26 in (9:55 pm)29.98 in (9:55 am)
Wind Speed7.3 mph17.3 mph (4:55 pm)
Wind Gust26.5 mph (3:55 pm)
Weather ElementAverage
Visibility10 mi
Wind DirectionE (84.4 °)

Weather ElementTotal
Precipitation---
Heating Degree Days25.5 (Base 65)
Averaged from 36 records on March 31, 2013
WEATHER CONDITIONS BREAKOUT
WIND DIRECTION BREAKOUT
WEATHER BY HOUR - MARCH 31, 2013
[ °C ]   °F
Local TimeTemperatureDewpointHumidityBarometerVisibilityWind DirectionWind SpeedGust SpeedPrecipitationEventsConditions
1:55 AM33.3 °F26.4 °F76 %30.12 in10.0 miWSW (240°)6.9 mphClear
2:55 AM33.6 °F26.1 °F74 %30.10 in10.0 miWest (270°)10.4 mphClear
3:55 AM33.4 °F25.2 °F72 %30.08 in10.0 miWest (260°)9.2 mphClear
4:55 AM32.5 °F24.3 °F72 %30.05 in10.0 miWest (260°)6.9 mphClear
5:55 AM32.9 °F23.2 °F67 %30.04 in10.0 miWest (260°)5.8 mphScattered Clouds
6:55 AM30.4 °F22.5 °F72 %30.03 in10.0 miWSW (250°)3.5 mphOvercast
7:55 AM36.3 °F26.1 °F66 %30.02 in10.0 miWSW (250°)3.5 mphOvercast
8:55 AM39.7 °F27.5 °F62 %29.99 in10.0 miCalmPartly Cloudy
9:55 AM43.2 °F30.4 °F61 %29.98 in10.0 miNE (40°)8.1 mphPartly Cloudy
10:55 AM46.2 °F31.1 °F56 %30.00 in10.0 miENE (60°)4.6 mphMostly Cloudy
11:55 AM48.9 °F30.6 °F49 %30.01 in10.0 miNE (40°)10.4 mphPartly Cloudy
12:55 PM48.7 °F26.8 °F43 %30.03 in10.0 miNNE (30°)13.8 mph20.7 mphPartly Cloudy
1:55 PM48.0 °F24.4 °F40 %30.05 in10.0 miNNE (30°)11.5 mphOvercast
2:55 PM48.6 °F23.7 °F38 %30.06 in10.0 miNE (40°)12.7 mph20.7 mphClear
3:55 PM46.4 °F16.5 °F30 %30.09 in10.0 miNNE (30°)16.1 mph26.5 mphClear
4:55 PM46.6 °F17.8 °F32 %30.11 in10.0 miNorth (10°)17.3 mphClear
5:55 PM42.4 °F19.9 °F41 %30.15 in10.0 miNE (40°)16.1 mphClear
6:55 PM36.5 °F26.1 °F66 %30.19 in10.0 miNE (40°)12.7 mphClear
7:55 PM33.8 °F26.8 °F75 %30.21 in10.0 miNNE (30°)10.4 mphClear
8:47 PM33.8 °F26.6 °F75 %30.25 in10.0 miENE (60°)5.8 mphMostly Cloudy
8:54 PM32.0 °F26.6 °F80 %30.25 in10.0 miNE (50°)5.8 mphMostly Cloudy
8:55 PM32.7 °F27.3 °F81 %30.25 in10.0 miNE (40°)5.8 mphMostly Cloudy
9:06 PM32.0 °F26.6 °F80 %30.24 in10.0 miNE (40°)10.4 mphOvercast
9:15 PM32.0 °F26.6 °F80 %30.24 in10.0 miNE (50°)6.9 mphLight Drizzle
9:25 PM32.0 °F26.6 °F80 %30.25 in10.0 miENE (60°)8.1 mphRainLight Rain
9:35 PM32.0 °F26.6 °F80 %30.25 in10.0 miENE (60°)6.9 mphOvercast
9:55 PM30.9 °F26.2 °F83 %30.26 in10.0 miENE (70°)5.8 mph0.00 inOvercast
10:09 PM30.2 °F26.6 °F86 %30.26 in10.0 miENE (60°)6.9 mphOvercast
10:20 PM30.2 °F26.6 °F86 %30.26 in10.0 miEast (80°)4.6 mphOvercast
10:36 PM30.2 °F26.6 °F86 %30.25 in10.0 miENE (70°)3.5 mphOvercast
10:44 PM30.2 °F26.6 °F86 %30.26 in10.0 miCalmOvercast
10:55 PM30.4 °F26.1 °F84 %30.25 in10.0 miCalm0.00 inOvercast
11:05 PM30.2 °F26.6 °F86 %30.25 in10.0 miCalmOvercast
11:40 PM30.2 °F26.6 °F86 %30.25 in10.0 miENE (70°)4.6 mphOvercast
11:48 PM30.2 °F26.6 °F86 %30.25 in10.0 miENE (70°)4.6 mphOvercast
11:55 PM30.4 °F26.1 °F84 %30.25 in10.0 miEast (80°)4.6 mphOvercast
Hourly data recorded from KRCA, located miles away from Box Elder, South Dakota







STORIES FROM OUR PARTNERS